GW6078 Weather Reports


time (UTC)temp
C
wind
direction
speed
KPH
gust
KPH
rain 1hr
cm
rain 24hr
cm
rain mn
cm
humidity
%
barometer
mb
20260906215257 26 314 4.8 9.7 0.00 0.00 0.00 40 1022.9
20260906214755 27 7 12.9 14.5 0.00 0.00 0.00 40 1023.1
20260906214250 28 352 11.3 14.5 0.00 0.00 0.00 37 1023.2
20260906213749 28 357 12.9 16.1 0.00 0.00 0.00 38 1023.4
20260906213248 28 337 8.0 9.7 0.00 0.00 0.00 38 1023.2
20260906212746 28 14 14.5 14.5 0.00 0.00 0.00 39 1023.3
20260906212242 28 10 11.3 12.9 0.00 0.00 0.00 36 1023.3
20260906211742 28 15 4.8 8.0 0.00 0.00 0.00 40 1023.4
20260906211237 29 33 20.9 25.7 0.00 0.00 0.00 37 1023.3
20260906210732 29 316 14.5 17.7 0.00 0.00 0.00 36 1023.3
20260906210227 28 8 8.0 11.3 0.00 0.00 0.00 38 1023.7
20260906205722 28 20 12.9 14.5 0.00 0.00 0.00 36 1023.4
20260906205219 28 352 11.3 12.9 0.00 0.00 0.00 40 1023.8
20260906204718 29 336 12.9 14.5 0.00 0.00 0.00 36 1023.4
20260906204217 28 324 1.6 1.6 0.00 0.00 0.00 37 1023.7
20260906203717 28 28 19.3 24.1 0.00 0.00 0.00 37 1023.7
20260906203212 29 320 11.3 14.5 0.00 0.00 0.00 38 1023.7
20260906202709 29 16 8.0 9.7 0.00 0.00 0.00 37 1023.8
20260906202208 29 327 8.0 9.7 0.00 0.00 0.00 35 1023.8
20260906201704 29 359 9.7 12.9 0.00 0.00 0.00 38 1023.9
20260906201203 27 347 11.3 12.9 0.00 0.00 0.00 40 1024.2
20260906200659 27 306 9.7 14.5 0.00 0.00 0.00 41 1024.2
20260906200155 28 325 6.4 9.7 0.00 0.00 0.00 38 1024.2
20260906195650 28 331 4.8 4.8 0.00 0.00 0.00 38 1024.1
20260906195146 28 27 12.9 14.5 0.00 0.00 0.00 37 1024.1
20260906194642 28 287 4.8 4.8 0.00 0.00 0.00 36 1024.2
20260906194137 28 293 11.3 14.5 0.00 0.00 0.00 37 1024.1
20260906193632 28 26 8.0 9.7 0.00 0.00 0.00 36 1024.4
20260906193127 28 1 14.5 17.7 0.00 0.00 0.00 36 1024.4
20260906192623 28 336 4.8 8.0 0.00 0.00 0.00 36 1024.4
20260906192122 28 313 11.3 12.9 0.00 0.00 0.00 37 1024.4
20260906191617 27 1 8.0 12.9 0.00 0.00 0.00 36 1024.8
20260906191116 28 10 12.9 16.1 0.00 0.00 0.00 37 1024.7
20260906190617 27 321 6.4 9.7 0.00 0.00 0.00 37 1024.7
20260906190111 27 292 11.3 16.1 0.00 0.00 0.00 37 1024.9
20260906185610 27 347 14.5 17.7 0.00 0.00 0.00 36 1024.7
20260906185109 27 297 4.8 4.8 0.00 0.00 0.00 36 1024.8
20260906184604 27 325 8.0 9.7 0.00 0.00 0.00 37 1025.1
20260906184100 28 326 9.7 14.5 0.00 0.00 0.00 36 1025.1
20260906183555 27 335 4.8 8.0 0.00 0.00 0.00 38 1025.2
20260906183051 27 305 11.3 12.9 0.00 0.00 0.00 37 1025.4
20260906182546 27 359 9.7 12.9 0.00 0.00 0.00 38 1025.4
20260906182042 28 342 4.8 8.0 0.00 0.00 0.00 38 1025.7
20260906181537 28 342 9.7 12.9 0.00 0.00 0.00 37 1025.9
20260906181033 27 9 1.6 1.6 0.00 0.00 0.00 38 1025.8
20260906180528 27 337 11.3 16.1 0.00 0.00 0.00 38 1025.9
20260906180027 27 2 8.0 11.3 0.00 0.00 0.00 38 1025.9
20260906175526 27 4 9.7 14.5 0.00 0.00 0.00 39 1025.7
20260906175026 27 10 11.3 14.5 0.00 0.00 0.00 38 1025.9
20260906174524 26 24 11.3 12.9 0.00 0.00 0.00 39 1026.1
20260906174019 26 44 9.7 11.3 0.00 0.00 0.00 39 1025.7
20260906173514 27 347 6.4 8.0 0.00 0.00 0.00 38 1025.9
20260906173011 27 31 17.7 20.9 0.00 0.00 0.00 38 1025.8
20260906172505 26 35 4.8 8.0 0.00 0.00 0.00 39 1026.2
20260906172000 26 31 11.3 14.5 0.00 0.00 0.00 38 1026.2
20260906171455 26 30 6.4 9.7 0.00 0.00 0.00 39 1026.2
20260906170950 26 356 8.0 11.3 0.00 0.00 0.00 39 1026.4
20260906170446 26 357 4.8 8.0 0.00 0.00 0.00 39 1026.3
20260906165943 26 359 9.7 14.5 0.00 0.00 0.00 39 1026.3
20260906165442 25 304 4.8 4.8 0.00 0.00 0.00 38 1026.4
20260906164937 26 290 3.2 4.8 0.00 0.00 0.00 39 1026.4
20260906164436 26 324 8.0 11.3 0.00 0.00 0.00 38 1026.4
20260906163933 26 345 3.2 3.2 0.00 0.00 0.00 39 1026.4
20260906163428 26 315 3.2 3.2 0.00 0.00 0.00 40 1026.6
20260906162926 25 299 0.0 1.6 0.00 0.00 0.00 40 1026.6
20260906162425 25 301 4.8 8.0 0.00 0.00 0.00 40 1026.4
20260906161921 25 248 3.2 3.2 0.00 0.00 0.00 40 1026.7
20260906161420 25 321 0.0 0.0 0.00 0.00 0.00 40 1026.6
20260906160919 24 246 3.2 3.2 0.00 0.00 0.00 40 1026.6
20260906160418 24 281 3.2 3.2 0.00 0.00 0.00 39 1026.6
20260906155916 24 239 4.8 8.0 0.00 0.00 0.00 40 1026.7
20260906155410 24 246 4.8 4.8 0.00 0.00 0.00 40 1026.3
20260906154907 24 293 6.4 8.0 0.00 0.00 0.00 41 1026.6
20260906154401 23 294 8.0 9.7 0.00 0.00 0.00 42 1026.3
20260906153900 23 264 1.6 1.6 0.00 0.00 0.00 45 1026.4
20260906153359 22 226 3.2 3.2 0.00 0.00 0.00 46 1026.3
20260906152854 22 235 6.4 9.7 0.00 0.00 0.00 46 1026.6
20260906152354 22 251 0.0 1.6 0.00 0.00 0.00 48 1026.3
20260906151854 21 240 4.8 4.8 0.00 0.00 0.00 48 1026.6
20260906151349 21 244 4.8 4.8 0.00 0.00 0.00 49 1026.3
20260906150845 21 224 3.2 3.2 0.00 0.00 0.00 51 1026.4
20260906150340 20 233 4.8 8.0 0.00 0.00 0.00 52 1026.4
20260906145840 20 225 3.2 3.2 0.00 0.00 0.00 52 1026.6
20260906145338 20 248 4.8 4.8 0.00 0.00 0.00 53 1026.6
20260906144833 19 228 4.8 9.7 0.00 0.00 0.00 54 1026.1
20260906144329 19 214 4.8 8.0 0.00 0.00 0.00 54 1026.6
20260906143828 20 220 4.8 8.0 0.00 0.00 0.00 54 1026.4
20260906143325 18 231 1.6 1.6 0.00 0.00 0.00 56 1026.4
20260906142820 18 232 4.8 4.8 0.00 0.00 0.00 56 1026.2
20260906142315 18 228 4.8 4.8 0.00 0.00 0.00 57 1026.1
20260906141815 18 246 4.8 8.0 0.00 0.00 0.00 57 1026.1
20260906141309 18 231 4.8 4.8 0.00 0.00 0.00 57 1026.1
20260906140808 17 232 4.8 4.8 0.00 0.00 0.00 59 1025.9
20260906140303 17 231 4.8 4.8 0.00 0.00 0.00 59 1026.1
20260906135801 17 237 3.2 3.2 0.00 0.00 0.00 60 1026.1
20260906135255 17 232 1.6 3.2 0.00 0.00 0.00 60 1026.1
20260906134751 17 235 4.8 8.0 0.00 0.00 0.00 60 1026.1
20260906134246 17 234 1.6 1.6 0.00 0.00 0.00 61 1026.1
20260906133742 17 234 3.2 4.8 0.00 0.00 0.00 60 1025.6
20260906133237 16 234 1.6 3.2 0.00 0.00 0.00 61 1026.1
20260906132732 16 234 3.2 3.2 0.00 0.00 0.00 62 1025.8
20260906132228 15 234 1.6 3.2 0.00 0.00 0.00 64 1025.8
20260906131723 15 234 1.6 3.2 0.00 0.00 0.00 65 1025.8
20260906131218 15 234 1.6 1.6 0.00 0.00 0.00 66 1025.8
20260906130714 15 234 0.0 1.6 0.00 0.00 0.00 66 1025.9
20260906130209 15 234 1.6 3.2 0.00 0.00 0.00 66 1025.7
20260906125707 14 234 1.6 1.6 0.00 0.00 0.00 67 1025.4
20260906125206 15 234 1.6 1.6 0.00 0.00 0.00 66 1025.8
20260906124701 15 234 1.6 1.6 0.00 0.00 0.00 65 1025.8
20260906124156 15 234 1.6 1.6 0.00 0.00 0.00 66 1025.8
20260906123655 14 234 3.2 4.8 0.00 0.00 0.00 66 1025.7
20260906123151 15 234 1.6 3.2 0.00 0.00 0.00 65 1025.6
20260906122649 15 234 1.6 3.2 0.00 0.00 0.00 66 1025.3
20260906122145 15 234 1.6 1.6 0.00 0.00 0.00 66 1025.6
20260906121642 15 234 0.0 0.0 0.00 0.00 0.00 65 1025.8
20260906121138 15 234 0.0 0.0 0.00 0.00 0.00 66 1025.4
20260906120633 15 234 1.6 1.6 0.00 0.00 0.00 66 1025.7
20260906120131 15 234 1.6 1.6 0.00 0.00 0.00 65 1025.6
20260906115631 15 234 0.0 0.0 0.00 0.00 0.00 64 1025.4
20260906115126 15 234 1.6 1.6 0.00 0.00 0.00 64 1025.4
20260906114625 15 233 1.6 3.2 0.00 0.00 0.00 64 1025.4
20260906114120 15 237 1.6 1.6 0.00 0.00 0.00 64 1025.6
20260906113620 15 237 1.6 1.6 0.00 0.00 0.00 65 1025.6
20260906113120 15 236 0.0 0.0 0.00 0.00 0.00 64 1025.6
20260906112620 15 237 0.0 0.0 0.00 0.00 0.00 64 1025.2
20260906112117 15 237 0.0 0.0 0.00 0.00 0.00 64 1025.6
20260906111616 15 237 0.0 0.0 0.00 0.00 0.00 63 1025.3
20260906111111 15 239 0.0 0.0 0.00 0.00 0.00 63 1025.4
20260906110606 15 236 0.0 0.0 0.00 0.00 0.00 63 1025.1
20260906110106 15 237 0.0 0.0 0.00 0.00 0.00 62 1025.1
20260906105600 15 237 0.0 0.0 0.00 0.00 0.00 62 1024.9
20260906105057 15 236 0.0 0.0 0.00 0.00 0.00 62 1025.2
20260906104555 15 236 0.0 0.0 0.00 0.00 0.00 62 1025.4
20260906104050 16 237 0.0 0.0 0.00 0.00 0.00 61 1025.3
20260906103548 16 239 0.0 0.0 0.00 0.00 0.00 61 1025.2
20260906103043 15 239 0.0 0.0 0.00 0.00 0.00 63 1025.2
20260906102544 15 237 0.0 0.0 0.00 0.00 0.00 63 1025.3
20260906102039 15 237 0.0 0.0 0.00 0.00 0.00 65 1025.4
20260906101539 15 237 0.0 0.0 0.00 0.00 0.00 65 1025.6
20260906101033 15 237 0.0 0.0 0.00 0.00 0.00 64 1025.4
20260906100529 16 239 0.0 0.0 0.00 0.00 0.00 64 1025.4
20260906100030 16 239 0.0 0.0 0.00 0.00 0.00 64 1025.2
20260906095524 16 239 0.0 0.0 0.00 0.00 0.00 64 1025.6
20260906095020 16 239 0.0 0.0 0.00 0.00 0.00 66 1025.4
20260906094518 15 239 0.0 0.0 0.00 0.00 0.00 69 1025.6
20260906094014 15 239 0.0 0.0 0.00 0.00 0.00 70 1025.6
20260906093510 15 236 0.0 0.0 0.00 0.00 0.00 68 1025.7
20260906093010 15 239 0.0 0.0 0.00 0.00 0.00 73 1025.6
20260906092505 15 240 0.0 0.0 0.00 0.00 0.00 73 1025.4
20260906092000 15 240 0.0 0.0 0.00 0.00 0.00 72 1025.7
20260906091456 15 240 0.0 0.0 0.00 0.00 0.00 72 1025.6
20260906090952 15 240 0.0 0.0 0.00 0.00 0.00 73 1025.3
20260906090447 15 239 0.0 0.0 0.00 0.00 0.00 73 1025.3
20260906085947 15 239 0.0 0.0 0.00 0.00 0.00 74 1025.2
20260906085446 15 239 0.0 0.0 0.00 0.00 0.00 73 1025.2
20260906084945 16 237 0.0 0.0 0.00 0.00 0.00 73 1025.4
20260906084440 16 237 0.0 0.0 0.00 0.00 0.00 72 1025.4
20260906083939 16 237 0.0 0.0 0.00 0.00 0.00 71 1025.3
20260906083435 16 238 0.0 0.0 0.00 0.00 0.00 70 1025.4
20260906082934 16 238 0.0 0.0 0.00 0.00 0.00 69 1025.3
20260906082430 16 236 0.0 0.0 0.00 0.00 0.00 70 1025.3
20260906081925 16 236 0.0 0.0 0.00 0.00 0.00 69 1025.4
20260906081421 16 236 0.0 0.0 0.00 0.00 0.00 71 1025.4
20260906080917 16 237 0.0 0.0 0.00 0.00 0.00 73 1025.6
20260906080413 16 237 0.0 0.0 0.00 0.00 0.00 73 1025.8
20260906075912 17 237 0.0 0.0 0.00 0.00 0.00 71 1025.6
20260906075408 17 233 0.0 0.0 0.00 0.00 0.00 70 1025.7
20260906074903 17 237 0.0 0.0 0.00 0.00 0.00 70 1025.6
20260906074402 17 237 0.0 0.0 0.00 0.00 0.00 70 1025.7
20260906073901 17 245 0.0 0.0 0.00 0.00 0.00 72 1025.4
20260906073356 17 244 0.0 0.0 0.00 0.00 0.00 71 1025.7
20260906072853 16 273 0.0 0.0 0.00 0.00 0.00 73 1025.6
20260906072348 16 278 0.0 0.0 0.00 0.00 0.00 76 1025.7
20260906071844 16 278 0.0 0.0 0.00 0.00 0.00 77 1025.8
20260906071339 16 278 0.0 0.0 0.00 0.00 0.00 76 1026.1
20260906070835 16 278 0.0 0.0 0.00 0.00 0.00 77 1025.9
20260906070331 16 278 0.0 0.0 0.00 0.00 0.00 76 1025.7
20260906065826 16 278 0.0 0.0 0.00 0.00 0.00 78 1025.7
20260906065321 16 278 0.0 0.0 0.00 0.00 0.00 78 1025.8
20260906064817 16 278 0.0 0.0 0.00 0.00 0.00 79 1025.9
20260906064313 16 278 0.0 0.0 0.00 0.00 0.00 78 1026.2
20260906063813 16 279 0.0 0.0 0.00 0.00 0.00 78 1025.8
20260906063308 16 279 0.0 0.0 0.00 0.00 0.00 79 1026.1
20260906062803 16 278 0.0 0.0 0.00 0.00 0.00 78 1026.1
20260906062305 16 257 1.6 1.6 0.00 0.00 0.00 77 1026.2
20260906061758 16 256 0.0 0.0 0.00 0.00 0.00 76 1025.8
20260906061254 17 256 1.6 1.6 0.00 0.00 0.00 75 1025.7
20260906060749 17 250 0.0 0.0 0.00 0.00 0.00 75 1025.8
20260906060247 17 220 4.8 4.8 0.00 0.00 0.00 74 1025.6
20260906055742 17 184 8.0 9.7 0.00 0.00 0.00 76 1025.8
20260906055237 17 6 3.2 3.2 0.00 0.00 0.00 72 1025.4
20260906054732 17 6 1.6 1.6 0.00 0.00 0.00 71 1025.4
20260906054228 18 6 3.2 4.8 0.00 0.00 0.00 71 1025.3
20260906053724 18 8 4.8 4.8 0.00 0.00 0.00 71 1025.2
20260906053220 18 1 4.8 4.8 0.00 0.00 0.00 71 1025.3
20260906052715 18 1 3.2 3.2 0.00 0.00 0.00 71 1025.4
20260906052211 18 2 4.8 4.8 0.00 0.00 0.00 71 1025.3
20260906051708 18 355 4.8 8.0 0.00 0.00 0.00 71 1025.3
20260906051207 18 354 4.8 8.0 0.00 0.00 0.00 72 1025.3
20260906050702 18 354 3.2 3.2 0.00 0.00 0.00 71 1025.6
20260906050157 18 350 3.2 3.2 0.00 0.00 0.00 72 1025.7
20260906045655 17 344 4.8 4.8 0.00 0.00 0.00 73 1025.4
20260906045151 17 350 4.8 4.8 0.00 0.00 0.00 73 1025.6
20260906044647 18 350 8.0 9.7 0.00 0.00 0.00 72 1025.7
20260906044142 18 354 8.0 8.0 0.00 0.00 0.00 72 1025.6
20260906043638 18 351 8.0 9.7 0.00 0.00 0.00 71 1025.6
20260906043134 18 348 4.8 4.8 0.00 0.00 0.00 71 1025.8
20260906042633 18 352 8.0 11.3 0.00 0.00 0.00 72 1026.1
20260906042127 18 349 8.0 9.7 0.00 0.00 0.00 72 1025.8
20260906041623 18 349 3.2 3.2 0.00 0.00 0.00 72 1025.9
20260906041118 18 342 4.8 4.8 0.00 0.00 0.00 72 1025.8
20260906040614 18 2 3.2 3.2 0.00 0.00 0.00 72 1025.8
20260906040109 18 356 1.6 1.6 0.00 0.00 0.00 70 1025.8
20260906035604 18 355 3.2 3.2 0.00 0.00 0.00 70 1025.8
20260906035100 19 355 4.8 4.8 0.00 0.00 0.00 70 1025.8
20260906034559 18 2 6.4 8.0 0.00 0.00 0.00 70 1025.9
20260906034054 19 349 1.6 1.6 0.00 0.00 0.00 70 1025.8
20260906033550 19 4 4.8 4.8 0.00 0.00 0.00 69 1026.1
20260906033045 19 8 4.8 4.8 0.00 0.00 0.00 68 1025.9
20260906032541 20 359 3.2 3.2 0.00 0.00 0.00 68 1025.7
20260906032036 20 3 4.8 4.8 0.00 0.00 0.00 67 1025.7
20260906031532 20 355 4.8 4.8 0.00 0.00 0.00 68 1025.8
20260906031027 20 352 4.8 8.0 0.00 0.00 0.00 68 1025.7
20260906030526 20 333 8.0 9.7 0.00 0.00 0.00 67 1025.7
20260906030026 20 343 8.0 9.7 0.00 0.00 0.00 68 1025.4
20260906025526 20 335 4.8 4.8 0.00 0.00 0.00 68 1025.6
20260906025024 20 324 1.6 3.2 0.00 0.00 0.00 68 1025.4
20260906024520 20 323 4.8 4.8 0.00 0.00 0.00 67 1025.2
20260906024019 20 339 6.4 8.0 0.00 0.00 0.00 66 1025.2
20260906023516 20 312 6.4 9.7 0.00 0.00 0.00 65 1025.2
20260906023011 20 315 9.7 12.9 0.00 0.00 0.00 63 1025.3
20260906022506 20 315 9.7 11.3 0.00 0.00 0.00 55 1025.2
20260906022001 20 281 3.2 3.2 0.00 0.00 0.00 45 1024.9
20260906021455 20 179 0.0 0.0 0.00 0.00 0.00 44 1024.8
20260906020950 20 179 0.0 0.0 0.00 0.00 0.00 44 1024.7
20260906020444 20 179 0.0 0.0 0.00 0.00 0.00 45 1024.6
20260906015944 20 179 0.0 0.0 0.00 0.00 0.00 44 1024.7
20260906015443 20 179 0.0 0.0 0.00 0.00 0.00 44 1024.4
20260906014943 20 179 0.0 0.0 0.00 0.00 0.00 43 1024.7
20260906014438 20 179 0.0 0.0 0.00 0.00 0.00 43 1024.3
20260906013934 21 179 0.0 0.0 0.00 0.00 0.00 42 1024.6
20260906013429 21 179 0.0 0.0 0.00 0.00 0.00 42 1024.3
20260906012925 21 179 0.0 0.0 0.00 0.00 0.00 41 1024.2
20260906012425 22 179 0.0 0.0 0.00 0.00 0.00 41 1024.2
20260906011924 22 179 0.0 0.0 0.00 0.00 0.00 40 1024.3
20260906011419 22 179 0.0 0.0 0.00 0.00 0.00 39 1024.7
20260906010915 23 179 0.0 0.0 0.00 0.00 0.00 39 1024.3
20260906010411 23 179 0.0 0.0 0.00 0.00 0.00 37 1024.7
20260906005906 23 178 0.0 0.0 0.00 0.00 0.00 36 1024.7
20260906005406 24 178 1.6 3.2 0.00 0.00 0.00 36 1024.9
20260906004904 24 125 3.2 4.8 0.00 0.00 0.00 36 1024.6
20260906004405 24 165 4.8 4.8 0.00 0.00 0.00 36 1025.1
20260906003900 24 147 1.6 1.6 0.00 0.00 0.00 36 1024.9
20260906003355 24 223 1.6 3.2 0.00 0.00 0.00 36 1024.8
20260906002851 23 214 1.6 1.6 0.00 0.00 0.00 37 1024.7
20260906002350 23 239 0.0 0.0 0.00 0.00 0.00 38 1024.8
20260906001846 23 215 4.8 4.8 0.00 0.00 0.00 39 1024.8
20260906001342 23 183 3.2 3.2 0.00 0.00 0.00 38 1024.8
20260906000836 24 217 0.0 1.6 0.00 0.00 0.00 38 1024.6
20260906000337 24 217 1.6 3.2 0.00 0.00 0.00 37 1024.7
20260905235836 24 218 1.6 1.6 0.00 0.00 0.00 37 1024.8
20260905235331 24 221 3.2 3.2 0.00 0.00 0.00 36 1024.4
20260905234827 25 199 4.8 4.8 0.00 0.00 0.00 35 1024.4
20260905234322 25 134 0.0 0.0 0.00 0.00 0.00 36 1024.9
20260905233817 25 212 3.2 3.2 0.00 0.00 0.00 36 1024.7
20260905233312 25 167 3.2 3.2 0.00 0.00 0.00 35 1024.7
20260905232811 26 93 3.2 3.2 0.00 0.00 0.00 34 1024.4
20260905232307 26 270 0.0 0.0 0.00 0.00 0.00 32 1024.6
20260905231803 27 270 0.0 1.6 0.00 0.00 0.00 31 1024.3
20260905231258 27 264 0.0 3.2 0.00 0.00 0.00 32 1024.4
20260905230754 26 227 0.0 1.6 0.00 0.00 0.00 33 1024.6
20260905230252 26 174 0.0 0.0 0.00 0.00 0.00 34 1024.4
20260905225751 27 160 4.8 8.0 0.00 0.00 0.00 32 1024.4
20260905225246 26 80 1.6 1.6 0.00 0.00 0.00 32 1024.2
20260905224745 26 271 0.0 0.0 0.00 0.00 0.00 32 1024.4
20260905224242 27 120 3.2 4.8 0.00 0.00 0.00 32 1024.4
20260905223737 25 273 0.0 1.6 0.00 0.00 0.00 36 1024.4
20260905223234 25 273 3.2 3.2 0.00 0.00 0.00 36 1024.6
20260905222729 25 31 0.0 0.0 0.00 0.00 0.00 39 1024.6
20260905222228 25 1 6.4 8.0 0.00 0.00 0.00 37 1025.1
20260905221724 25 66 8.0 9.7 0.00 0.00 0.00 35 1024.8
20260905221221 25 312 1.6 1.6 0.00 0.00 0.00 34 1024.8
20260905220717 25 51 8.0 9.7 0.00 0.00 0.00 34 1025.1
20260905220213 25 7 1.6 3.2 0.00 0.00 0.00 35 1025.1
20260905215712 25 78 1.6 1.6 0.00 0.00 0.00 35 1025.1